Location: ????????
(56.1167°N, 38.6333°E)
Time: 20:50:21
(UTC+00:00)

ATLAS 2AS CENTAUR R/B - Pass Details

Date: 18 November 2025
Orbit: 1047 x 1163 km, 63.7° (Epoch: 14 December)

Event Time Altitude Azimuth Distance (km) Brightness Sun altitude
Rises 17:33:21 0° 310° (NW) 3,849 6.5 -35.6°
Reaches altitude 10° 17:36:10 10° 303° (WNW) 2,881 5.7 -36.0°
Enters shadow 17:42:15 38° 240° (WSW) 1,539 3.6 -36.8°
